Home   Weather   Grand Rapids   Past weeks
Flag for USA

Past Weather in Grand Rapids, Michigan, USA — Yesterday and Last 2 Weeks

Now
58 °F

Overcast.


Feels Like: 58 °F
Forecast: 60 / 30 °F
Wind: 5 mph from Southeast

Location: Kent County International Airport

Current Time: Apr 6, 2020 at 2:19:06 pm

Latest Report: Apr 6, 2020 at 12:53 pm


Visibility: 10 mi

Pressure: 30.10 "Hg

Humidity: 44%

Dew Point: 36 °F

Location of Grand RapidsLocation

Past Weather in Grand Rapids — Graph

°F

Grand Rapids Temperature Yesterday

Maximum temperature yesterday: 57 °F (at 5:53 pm)
Minimum temperature yesterday: 33 °F (at 6:53 am)
Average temperature yesterday: 42 °F

High & Low Weather Summary for the Past Weeks

 TemperatureHumidityPressure
High66 °F (Apr 3, 4:53 pm)100% (Mar 28, 4:11 am)30.52 "Hg (Mar 28, 4:11 am)
Low27 °F (Mar 25, 7:53 am)23% (Apr 3, 1:53 pm)29.44 "Hg (Mar 29, 5:53 am)
Average42 °F78%30.00 "Hg
* Reported Mar 22 12:53 pm — Apr 6 12:53 pm, Grand Rapids. Weather by CustomWeather, © 2020

Note: Actual official high and low records may vary slightly from our data, if they occured in-between our weather recording intervals... More about our weather records

Grand Rapids Weather History for the Previous 24 Hours

Scroll right to see more
 ConditionsComfort  
Time TempWeatherWind HumidityBarometerVisibility
12:53 pm
Mon, Apr 6
58 °FOvercast.5 mph44%30.10 "Hg10 mi
11:53 am56 °FPartly sunny.7 mph55%30.13 "Hg10 mi
10:53 am51 °FPartly sunny.7 mph69%30.15 "Hg10 mi
9:53 am47 °FScattered clouds.7 mph74%30.17 "Hg10 mi
8:53 am40 °FScattered clouds.5 mph83%30.17 "Hg10 mi
7:53 am34 °FScattered clouds.No wind79%30.16 "Hg10 mi
6:53 am31 °FPassing clouds.No wind82%30.15 "Hg10 mi
5:53 am31 °FPassing clouds.No wind82%30.14 "Hg10 mi
4:53 am31 °FClear.3 mph82%30.15 "Hg10 mi
3:53 am34 °FClear.No wind79%30.15 "Hg10 mi
2:53 am35 °FClear.No wind70%30.17 "Hg10 mi
1:53 am37 °FClear.No wind60%30.17 "Hg10 mi
12:53 am40 °FClear.No wind53%30.17 "Hg10 mi
11:53 pm
Sun, Apr 5
44 °FClear.No wind45%30.17 "Hg10 mi
10:53 pm43 °FClear.5 mph47%30.17 "Hg10 mi
9:53 pm45 °FClear.7 mph44%30.17 "Hg10 mi
8:53 pm48 °FClear.7 mph37%30.16 "Hg10 mi
7:53 pm51 °FPassing clouds.7 mph32%30.16 "Hg10 mi
6:53 pm55 °FPassing clouds.8 mph25%30.15 "Hg10 mi
5:53 pm57 °FPassing clouds.6 mph23%30.16 "Hg10 mi
4:53 pm56 °FPassing clouds.9 mph26%30.16 "Hg10 mi
3:53 pm56 °FPassing clouds.3 mph26%30.17 "Hg10 mi
2:53 pm53 °FPassing clouds.No wind28%30.19 "Hg10 mi
Weather by CustomWeather, © 2020

See weather overview

Advertising